Voltar ao catálogo

STARLINK-3502

AtivoComunicaçõesVLEO
NORAD 51746·PAYLOAD·🇺🇸 United States

Lançado Feb 21, 2022 de Cape Canaveral Space Force Station

Loading…

Próximas Passagens (próximas 24 horas)

TLE

AtualizadoSource: CelesTrak SupGP

Época: Sep 15, 2026, 02:47 UTC

1 51746C 22016AJ  26258.11645833  .00025354  00000+0  81543-3 0  2588
2 51746  53.1583 166.8369 0001368  81.5690  68.0763 15.31684513    14

Acompanhe STARLINK-3502 em tempo real com AllMySat

Download on the App Store